| time (UTC) | temp F | wind direction | speed MPH | gust MPH | rain 1hr in | rain 24hr in | rain mn in | humidity % | barometer mb |
| 20260507085429 | 44 | 244 | 0.0 | 2.0 | 0.01 | 0.47 | 0.07 | 61 | 1004.9 |
| 20260507084428 | 45 | 257 | 1.0 | 3.0 | 0.01 | 0.47 | 0.07 | 61 | 1004.8 |
| 20260507083429 | 45 | 281 | 1.0 | 3.0 | 0.01 | 0.47 | 0.07 | 61 | 1004.3 |
| 20260507083352 | 45 | 320 | 1.0 | 3.0 | 0.01 | 0.47 | 0.07 | 60 | 1004.1 |
| 20260507081429 | 46 | 302 | 0.0 | 3.0 | 0.00 | 0.46 | 0.06 | 60 | 1004.2 |
| 20260507080429 | 46 | 302 | 2.0 | 5.0 | 0.00 | 0.46 | 0.06 | 60 | 1004.1 |
| 20260507075427 | 47 | 316 | 2.0 | 5.0 | 0.00 | 0.46 | 0.06 | 60 | 1004.2 |
| 20260507074427 | 47 | 331 | 2.0 | 5.0 | 0.00 | 0.46 | 0.06 | 59 | 1004.3 |
| 20260507073426 | 48 | 284 | 1.0 | 3.0 | 0.00 | 0.46 | 0.06 | 59 | 1004.4 |
| 20260507072424 | 48 | 290 | 0.0 | 2.0 | 0.00 | 0.46 | 0.06 | 59 | 1004.2 |
| 20260507071423 | 48 | 290 | 0.0 | 2.0 | 0.00 | 0.46 | 0.06 | 59 | 1004.0 |
| 20260507070901 | 48 | 290 | 0.0 | 1.0 | 0.00 | 0.46 | 0.06 | 59 | 1004.0 |
| 20260507065420 | 48 | 290 | 0.0 | 2.0 | 0.00 | 0.46 | 0.06 | 59 | 1003.7 |
| 20260507064421 | 49 | 284 | 1.0 | 2.0 | 0.00 | 0.46 | 0.06 | 59 | 1003.6 |
| 20260507063421 | 49 | 284 | 0.0 | 2.0 | 0.00 | 0.46 | 0.06 | 59 | 1003.5 |
| 20260507062421 | 49 | 284 | 0.0 | 2.0 | 0.00 | 0.46 | 0.06 | 58 | 1003.4 |
| 20260507061421 | 49 | 284 | 0.0 | 3.0 | 0.00 | 0.46 | 0.06 | 58 | 1003.5 |
| 20260507060419 | 49 | 0 | 0.0 | 2.0 | 0.01 | 0.46 | 0.06 | 58 | 1003.2 |
| 20260507055418 | 49 | 0 | 0.0 | 2.0 | 0.01 | 0.46 | 0.06 | 58 | 1003.1 |
| 20260507054419 | 49 | 340 | 0.0 | 2.0 | 0.02 | 0.46 | 0.06 | 58 | 1003.0 |
| 20260507053419 | 50 | 311 | 0.0 | 4.0 | 0.04 | 0.46 | 0.06 | 58 | 1003.1 |
| 20260507052416 | 50 | 315 | 1.0 | 4.0 | 0.05 | 0.46 | 0.06 | 58 | 1003.4 |
| 20260507051417 | 51 | 331 | 1.0 | 5.0 | 0.05 | 0.46 | 0.05 | 58 | 1003.4 |
| 20260507050415 | 51 | 313 | 2.0 | 7.0 | 0.05 | 0.45 | 0.05 | 57 | 1003.4 |
| 20260507045856 | 51 | 279 | 3.0 | 10.0 | 0.07 | 0.45 | 0.05 | 57 | 1003.6 |
| 20260507044406 | 51 | 335 | 3.0 | 10.0 | 0.10 | 0.44 | 0.04 | 57 | 1003.3 |
| 20260507043407 | 52 | 302 | 4.0 | 10.0 | 0.08 | 0.42 | 0.02 | 57 | 1003.5 |
| 20260507042407 | 52 | 279 | 2.0 | 6.0 | 0.09 | 0.41 | 0.01 | 57 | 1003.2 |
| 20260507041407 | 52 | 254 | 2.0 | 6.0 | 0.10 | 0.41 | 0.01 | 57 | 1003.2 |
| 20260507040407 | 53 | 284 | 3.0 | 11.0 | 0.09 | 0.40 | 0.00 | 56 | 1003.2 |
| 20260507035405 | 53 | 347 | 4.0 | 11.0 | 0.07 | 0.38 | 0.38 | 56 | 1003.1 |
| 20260507034405 | 54 | 279 | 3.0 | 8.0 | 0.04 | 0.34 | 0.34 | 56 | 1003.1 |
| 20260507033406 | 54 | 336 | 3.0 | 9.0 | 0.04 | 0.34 | 0.34 | 56 | 1002.9 |
| 20260507032406 | 54 | 272 | 2.0 | 6.0 | 0.02 | 0.32 | 0.32 | 56 | 1002.8 |
| 20260507031403 | 54 | 205 | 2.0 | 6.0 | 0.02 | 0.31 | 0.31 | 56 | 1002.7 |
| 20260507030404 | 54 | 222 | 2.0 | 8.0 | 0.03 | 0.31 | 0.31 | 56 | 1002.3 |
| 20260507025403 | 53 | 229 | 3.0 | 8.0 | 0.03 | 0.31 | 0.31 | 56 | 1002.4 |
| 20260507024404 | 53 | 208 | 2.0 | 8.0 | 0.02 | 0.30 | 0.30 | 56 | 1002.6 |
| 20260507023403 | 53 | 237 | 2.0 | 8.0 | 0.03 | 0.30 | 0.30 | 56 | 1002.6 |
| 20260507022404 | 53 | 192 | 3.0 | 11.0 | 0.03 | 0.30 | 0.30 | 56 | 1002.6 |
| 20260507021404 | 53 | 186 | 5.0 | 13.0 | 0.02 | 0.29 | 0.29 | 56 | 1002.5 |
| 20260507020404 | 53 | 189 | 5.0 | 13.0 | 0.01 | 0.28 | 0.28 | 56 | 1002.6 |
| 20260507015404 | 53 | 184 | 5.0 | 9.0 | 0.01 | 0.28 | 0.28 | 56 | 1002.5 |
| 20260507014403 | 54 | 196 | 6.0 | 11.0 | 0.01 | 0.28 | 0.28 | 56 | 1002.6 |
| 20260507013403 | 54 | 142 | 6.0 | 12.0 | 0.00 | 0.27 | 0.27 | 56 | 1002.6 |
| 20260507012403 | 54 | 201 | 5.0 | 13.0 | 0.00 | 0.27 | 0.27 | 56 | 1002.6 |
| 20260507011404 | 54 | 235 | 6.0 | 13.0 | 0.00 | 0.27 | 0.27 | 56 | 1002.8 |
| 20260507010401 | 54 | 157 | 7.0 | 16.0 | 0.00 | 0.27 | 0.27 | 56 | 1002.8 |
| 20260507005401 | 54 | 180 | 6.0 | 16.0 | 0.00 | 0.27 | 0.27 | 56 | 1002.9 |
| 20260507004401 | 54 | 208 | 6.0 | 17.0 | 0.00 | 0.27 | 0.27 | 56 | 1003.0 |
| 20260507003402 | 55 | 227 | 6.0 | 17.0 | 0.00 | 0.27 | 0.27 | 56 | 1003.0 |
| 20260507002401 | 54 | 234 | 6.0 | 19.0 | 0.00 | 0.27 | 0.27 | 56 | 1003.0 |
| 20260507001842 | 54 | 159 | 6.0 | 19.0 | 0.00 | 0.27 | 0.27 | 56 | 1003.0 |
| 20260507000405 | 54 | 161 | 7.0 | 17.0 | 0.00 | 0.27 | 0.27 | 56 | 1003.1 |
| 20260506235402 | 54 | 173 | 7.0 | 14.0 | 0.00 | 0.27 | 0.27 | 56 | 1003.0 |
| 20260506234402 | 54 | 120 | 6.0 | 13.0 | 0.00 | 0.27 | 0.27 | 57 | 1003.3 |
| 20260506233401 | 54 | 223 | 6.0 | 15.0 | 0.00 | 0.27 | 0.27 | 57 | 1003.3 |
| 20260506233311 | 54 | 197 | 6.0 | 14.0 | 0.00 | 0.27 | 0.27 | 57 | 1003.4 |
| 20260506231403 | 54 | 200 | 5.0 | 13.0 | 0.01 | 0.28 | 0.27 | 58 | 1003.5 |
| 20260506231322 | 54 | 202 | 5.0 | 9.0 | 0.01 | 0.28 | 0.27 | 58 | 1003.6 |
| 20260506225402 | 54 | 177 | 5.0 | 12.0 | 0.02 | 0.28 | 0.27 | 58 | 1003.7 |
| 20260506224401 | 54 | 153 | 5.0 | 12.0 | 0.02 | 0.28 | 0.27 | 58 | 1003.8 |
| 20260506223401 | 54 | 191 | 5.0 | 11.0 | 0.03 | 0.28 | 0.27 | 58 | 1003.8 |
| 20260506222402 | 54 | 163 | 5.0 | 11.0 | 0.03 | 0.28 | 0.27 | 58 | 1004.0 |
| 20260506221401 | 54 | 236 | 5.0 | 10.0 | 0.03 | 0.27 | 0.26 | 58 | 1004.0 |
| 20260506220401 | 54 | 167 | 5.0 | 12.0 | 0.04 | 0.27 | 0.26 | 58 | 1004.2 |
| 20260506215402 | 54 | 188 | 4.0 | 12.0 | 0.04 | 0.26 | 0.25 | 59 | 1004.1 |
| 20260506214401 | 54 | 191 | 5.0 | 15.0 | 0.05 | 0.26 | 0.25 | 59 | 1004.3 |
| 20260506213401 | 54 | 202 | 7.0 | 15.0 | 0.05 | 0.25 | 0.24 | 59 | 1004.2 |
| 20260506212842 | 54 | 198 | 5.0 | 12.0 | 0.06 | 0.25 | 0.24 | 59 | 1004.2 |
| 20260506211403 | 54 | 228 | 5.0 | 12.0 | 0.06 | 0.24 | 0.23 | 60 | 1004.2 |
| 20260506210402 | 54 | 186 | 6.0 | 12.0 | 0.05 | 0.23 | 0.22 | 60 | 1004.1 |
| 20260506205401 | 54 | 145 | 5.0 | 14.0 | 0.05 | 0.22 | 0.21 | 61 | 1004.3 |
| 20260506204401 | 54 | 158 | 4.0 | 14.0 | 0.06 | 0.21 | 0.20 | 61 | 1004.3 |
| 20260506203401 | 54 | 194 | 4.0 | 11.0 | 0.06 | 0.20 | 0.19 | 62 | 1004.4 |
| 20260506202840 | 54 | 167 | 4.0 | 10.0 | 0.06 | 0.19 | 0.18 | 62 | 1004.7 |
| 20260506201401 | 54 | 213 | 5.0 | 9.0 | 0.06 | 0.18 | 0.17 | 63 | 1004.7 |
| 20260506200401 | 54 | 136 | 5.0 | 13.0 | 0.12 | 0.18 | 0.16 | 64 | 1004.5 |
| 20260506195401 | 54 | 194 | 6.0 | 18.0 | 0.13 | 0.17 | 0.16 | 65 | 1004.7 |
| 20260506194401 | 54 | 155 | 6.0 | 18.0 | 0.12 | 0.15 | 0.14 | 66 | 1004.8 |
| 20260506193401 | 55 | 147 | 4.0 | 13.0 | 0.12 | 0.14 | 0.13 | 67 | 1004.9 |
| 20260506192401 | 55 | 191 | 4.0 | 9.0 | 0.12 | 0.13 | 0.12 | 68 | 1005.1 |
| 20260506191400 | 55 | 190 | 5.0 | 9.0 | 0.11 | 0.12 | 0.11 | 70 | 1005.2 |
| 20260506190402 | 55 | 193 | 5.0 | 10.0 | 0.05 | 0.06 | 0.04 | 73 | 1005.3 |
| 20260506185401 | 56 | 167 | 5.0 | 11.0 | 0.03 | 0.04 | 0.03 | 74 | 1005.1 |
| 20260506184400 | 57 | 184 | 3.0 | 13.0 | 0.02 | 0.03 | 0.02 | 76 | 1005.0 |
| 20260506183851 | 58 | 198 | 4.0 | 13.0 | 0.01 | 0.02 | 0.01 | 77 | 1004.9 |
| 20260506182401 | 59 | 178 | 3.0 | 10.0 | 0.00 | 0.01 | 0.00 | 77 | 1005.0 |
| 20260506181401 | 59 | 198 | 4.0 | 13.0 | 0.00 | 0.01 | 0.00 | 78 | 1005.1 |
| 20260506180401 | 60 | 212 | 6.0 | 13.0 | 0.00 | 0.01 | 0.00 | 78 | 1005.1 |
| 20260506175401 | 60 | 146 | 4.0 | 11.0 | 0.00 | 0.01 | 0.00 | 78 | 1005.2 |
| 20260506174401 | 60 | 128 | 4.0 | 11.0 | 0.00 | 0.01 | 0.00 | 78 | 1005.4 |
| 20260506173401 | 60 | 178 | 4.0 | 11.0 | 0.00 | 0.01 | 0.00 | 78 | 1005.5 |
| 20260506172843 | 60 | 164 | 4.0 | 12.0 | 0.00 | 0.01 | 0.00 | 78 | 1005.7 |
| 20260506171401 | 60 | 216 | 5.0 | 11.0 | 0.00 | 0.01 | 0.00 | 77 | 1006.1 |
| 20260506170837 | 60 | 117 | 4.0 | 9.0 | 0.00 | 0.01 | 0.00 | 77 | 1006.2 |
| 20260506165401 | 60 | 196 | 4.0 | 9.0 | 0.00 | 0.01 | 0.00 | 77 | 1006.4 |
| 20260506164400 | 60 | 211 | 3.0 | 7.0 | 0.00 | 0.01 | 0.00 | 78 | 1006.5 |
| 20260506163401 | 60 | 188 | 4.0 | 10.0 | 0.00 | 0.01 | 0.00 | 78 | 1006.8 |
| 20260506162845 | 60 | 199 | 3.0 | 10.0 | 0.00 | 0.01 | 0.00 | 77 | 1006.8 |
| 20260506161400 | 60 | 180 | 4.0 | 10.0 | 0.00 | 0.01 | 0.00 | 78 | 1007.1 |
| 20260506160401 | 60 | 171 | 4.0 | 9.0 | 0.00 | 0.01 | 0.00 | 78 | 1007.2 |
| 20260506155401 | 60 | 125 | 4.0 | 8.0 | 0.00 | 0.01 | 0.00 | 77 | 1007.4 |
| 20260506154401 | 60 | 152 | 4.0 | 11.0 | 0.00 | 0.01 | 0.00 | 77 | 1007.4 |
| 20260506153839 | 60 | 95 | 5.0 | 11.0 | 0.00 | 0.01 | 0.00 | 77 | 1007.3 |
| 20260506152842 | 60 | 181 | 4.0 | 11.0 | 0.00 | 0.01 | 0.00 | 78 | 1007.3 |
| 20260506151401 | 60 | 188 | 3.0 | 11.0 | 0.00 | 0.01 | 0.00 | 78 | 1007.1 |
| 20260506151327 | 60 | 143 | 4.0 | 9.0 | 0.00 | 0.01 | 0.00 | 78 | 1007.2 |
| 20260506145401 | 60 | 202 | 4.0 | 9.0 | 0.00 | 0.01 | 0.00 | 78 | 1007.1 |
| 20260506144844 | 59 | 124 | 4.0 | 10.0 | 0.00 | 0.01 | 0.00 | 77 | 1006.8 |
| 20260506143402 | 59 | 131 | 3.0 | 8.0 | 0.00 | 0.01 | 0.00 | 77 | 1007.0 |
| 20260506142842 | 58 | 80 | 3.0 | 8.0 | 0.00 | 0.01 | 0.00 | 78 | 1007.4 |
| 20260506141401 | 58 | 185 | 4.0 | 9.0 | 0.00 | 0.01 | 0.00 | 78 | 1007.6 |
| 20260506140840 | 58 | 167 | 3.0 | 9.0 | 0.00 | 0.01 | 0.00 | 78 | 1007.7 |
| 20260506135401 | 58 | 198 | 3.0 | 7.0 | 0.00 | 0.01 | 0.00 | 78 | 1007.6 |
| 20260506134400 | 58 | 210 | 3.0 | 7.0 | 0.00 | 0.01 | 0.00 | 78 | 1007.6 |
| 20260506133400 | 57 | 147 | 2.0 | 6.0 | 0.00 | 0.01 | 0.00 | 78 | 1007.6 |
| 20260506132401 | 57 | 177 | 3.0 | 5.0 | 0.00 | 0.01 | 0.00 | 78 | 1007.7 |
| 20260506131401 | 58 | 138 | 2.0 | 4.0 | 0.00 | 0.01 | 0.00 | 78 | 1007.4 |
| 20260506130401 | 57 | 103 | 2.0 | 4.0 | 0.00 | 0.01 | 0.00 | 77 | 1007.6 |
| 20260506125401 | 57 | 130 | 2.0 | 4.0 | 0.00 | 0.01 | 0.00 | 78 | 1007.5 |
| 20260506124401 | 56 | 48 | 2.0 | 4.0 | 0.00 | 0.01 | 0.00 | 77 | 1007.8 |
| 20260506123400 | 56 | 75 | 1.0 | 4.0 | 0.00 | 0.01 | 0.00 | 78 | 1007.7 |
| 20260506122838 | 55 | 172 | 2.0 | 6.0 | 0.00 | 0.01 | 0.00 | 77 | 1008.0 |
| 20260506121401 | 55 | 119 | 2.0 | 7.0 | 0.00 | 0.01 | 0.00 | 77 | 1008.3 |
| 20260506120401 | 55 | 281 | 2.0 | 8.0 | 0.00 | 0.01 | 0.00 | 77 | 1008.2 |
| 20260506115400 | 55 | 78 | 2.0 | 7.0 | 0.00 | 0.01 | 0.00 | 77 | 1008.1 |
| 20260506114401 | 54 | 202 | 2.0 | 5.0 | 0.00 | 0.01 | 0.00 | 77 | 1008.5 |
| 20260506113401 | 53 | 144 | 2.0 | 5.0 | 0.00 | 0.01 | 0.00 | 77 | 1008.5 |
| 20260506112402 | 53 | 161 | 1.0 | 5.0 | 0.00 | 0.01 | 0.00 | 77 | 1008.6 |
| 20260506111401 | 53 | 205 | 0.0 | 2.0 | 0.00 | 0.01 | 0.00 | 76 | 1008.3 |
| 20260506110401 | 52 | 205 | 0.0 | 2.0 | 0.00 | 0.01 | 0.00 | 76 | 1008.5 |
| 20260506105401 | 52 | 205 | 0.0 | 2.0 | 0.00 | 0.01 | 0.00 | 76 | 1008.2 |
| 20260506104401 | 52 | 53 | 0.0 | 1.0 | 0.00 | 0.01 | 0.00 | 76 | 1008.2 |
| 20260506103401 | 52 | 53 | 0.0 | 2.0 | 0.00 | 0.01 | 0.00 | 75 | 1008.1 |
| 20260506102402 | 51 | 45 | 1.0 | 6.0 | 0.00 | 0.01 | 0.00 | 75 | 1008.3 |
| 20260506101401 | 51 | 140 | 1.0 | 6.0 | 0.00 | 0.01 | 0.00 | 75 | 1008.4 |
| 20260506100401 | 51 | 24 | 1.0 | 6.0 | 0.00 | 0.01 | 0.00 | 75 | 1008.5 |
| 20260506095401 | 51 | 142 | 2.0 | 6.0 | 0.00 | 0.01 | 0.00 | 75 | 1008.3 |
| 20260506094401 | 51 | 141 | 2.0 | 5.0 | 0.00 | 0.01 | 0.00 | 74 | 1008.2 |
| 20260506093401 | 51 | 138 | 2.0 | 3.0 | 0.00 | 0.01 | 0.00 | 74 | 1008.0 |
| 20260506092400 | 51 | 180 | 1.0 | 3.0 | 0.00 | 0.01 | 0.00 | 73 | 1008.0 |
| 20260506091401 | 51 | 305 | 0.0 | 2.0 | 0.00 | 0.01 | 0.00 | 74 | 1007.9 |
| 20260506090401 | 51 | 50 | 1.0 | 4.0 | 0.00 | 0.01 | 0.00 | 73 | 1007.7 |